Stations météo

réclame
Mon MeteoGroup
Vaestmarkum, Suède (2260): Température de l'air & dewpoint: 12.02.2019 01:00:00 - 18.02.2019 01:00:00 (CET)Vaestmarkum, Suède (2260): Vitesse du vent & gusts: 12.02.2019 01:00:00 - 18.02.2019 01:00:00 (CET)Vaestmarkum, Suède (2260): Direction du vent: 12.02.2019 01:00:00 - 18.02.2019 01:00:00 (CET)Vaestmarkum, Suède (2260): reduced air pressure: 12.02.2019 01:00:00 - 18.02.2019 01:00:00 (CET)Vaestmarkum, Suède (2260): visibility: 12.02.2019 01:00:00 - 18.02.2019 01:00:00 (CET)Vaestmarkum, Suède (2260): Quantités de précipitations: 12.02.2019 01:00:00 - 18.02.2019 01:00:00 (CET)
Date & Time tt [°C] td [°C] ff [km/h] ff [knt] fx [km/h] fx [knt] dd ppp [hPa] vv [km] rr [mm]
18.02.2019 01:00:00 -0,7 -2,6 7 4 22 12 SSE 1015,0 23 0,0
18.02.2019 00:00:00 -0,8 -2,8 9 5 19 11 SSE 1015,7 18 0,0
17.02.2019 23:00:00 -0,6 -4,0 7 4 17 9 SSE 1016,8 50 0,0
17.02.2019 22:00:00 -1,2 -4,9 3 2 10 6 SE 1018,2 19 0,0
17.02.2019 21:00:00 -1,5 -6,1 4 2 9 5 SSE 1018,7 19 0,0
17.02.2019 20:00:00 -3,3 -6,4 0 0 6 3 N 1019,0 50 0,0
17.02.2019 19:00:00 -4,3 -6,8 0 0 4 2 N 1019,1 50 0,0
17.02.2019 18:00:00 -3,9 -6,7 2 1 3 2 WNW 1019,5 50 0,0
17.02.2019 17:00:00 -3,9 -6,5 0 0 3 2 N 1019,4 50 0,0
17.02.2019 16:00:00 -2,3 -6,0 2 1 6 3 WSW 1019,0 50 0,0
17.02.2019 15:00:00 1,0 -6,8 0 0 8 4 N 1018,6 50 0,0
17.02.2019 14:00:00 2,3 -7,3 3 2 13 7 N 1018,2 41 0,0
17.02.2019 13:00:00 2,7 -6,2 6 4 18 10 N 1017,9 35 0,0
17.02.2019 12:00:00 1,9 -6,0 8 5 22 12 NNW 1017,5 40 0,0
17.02.2019 11:00:00 1,4 -5,2 10 5 24 13 NNW 1017,1 44 0,0
17.02.2019 10:00:00 0,0 -5,2 10 5 21 12 WNW 1016,8 39 0,0
17.02.2019 09:00:00 -0,6 -5,4 11 6 24 13 WNW 1015,6 48 0,0
17.02.2019 08:00:00 -1,5 -6,1 5 3 21 12 NW 1015,0 44 0,0
17.02.2019 07:00:00 -0,9 -5,9 12 7 35 19 NW 1014,0 50 0,0
17.02.2019 06:00:00 -0,4 -6,0 16 9 34 19 WNW 1013,0 50 0,0
17.02.2019 05:00:00 -0,4 -6,0 17 9 34 18 WNW 1012,3 50 0,0
17.02.2019 04:00:00 -0,3 -6,1 13 7 29 16 WNW 1011,6 50 0,0
17.02.2019 03:00:00 0,5 -5,7 19 10 39 21 WNW 1010,4 50 0,0
17.02.2019 02:00:00 0,4 -5,8 18 10 39 21 WNW 1008,8 47 0,0
17.02.2019 01:00:00 0,6 -5,4 20 11 43 23 W 1007,7 50 0,0
17.02.2019 00:00:00 - - - - 41 22 - - - -
16.02.2019 23:00:00 1,0 -5,9 13 7 41 22 NW 1005,9 50 0,0
16.02.2019 22:00:00 1,3 -5,8 20 11 46 25 WNW 1004,5 50 0,0
16.02.2019 21:00:00 1,7 -5,7 22 12 51 28 WNW 1003,5 50 0,0
16.02.2019 20:00:00 2,0 -5,6 18 10 36 19 WNW 1003,1 50 0,0
16.02.2019 19:00:00 2,5 -6,1 14 8 51 27 NW 1003,2 47 0,0
16.02.2019 18:00:00 3,0 -5,4 21 12 51 28 WNW 1002,5 43 0,0
16.02.2019 17:00:00 3,3 -4,9 16 9 31 17 WNW 1002,3 50 0,0
16.02.2019 16:00:00 4,4 -4,6 13 7 41 22 WNW 1001,4 49 0,0
16.02.2019 15:00:00 5,1 -2,3 15 8 46 25 WNW 1001,0 44 0,0
16.02.2019 14:00:00 5,7 -1,7 16 9 32 18 WNW 1000,8 50 0,0
16.02.2019 13:00:00 5,5 -1,2 14 7 41 22 WNW 999,9 42 0,0
16.02.2019 12:00:00 5,7 -0,8 19 10 37 20 WNW 1000,2 50 0,0
16.02.2019 11:00:00 6,1 0,0 16 8 29 16 NW 999,8 45 0,0
16.02.2019 10:00:00 5,0 -0,8 4 2 13 7 W 1000,2 50 0,0
16.02.2019 09:00:00 2,1 -3,0 2 1 19 10 ESE 1000,1 50 0,0
16.02.2019 08:00:00 5,5 -3,1 12 6 35 19 NW 999,9 50 0,0
16.02.2019 07:00:00 5,3 -2,8 17 9 30 16 WNW 999,5 50 0,0
16.02.2019 06:00:00 -5,4 -5,5 0 0 6 3 N 999,8 50 0,0
16.02.2019 05:00:00 -6,4 -6,8 0 0 5 3 N 1000,7 50 0,0
16.02.2019 04:00:00 -5,4 -5,5 3 2 5 3 WNW 1001,4 40 0,0
16.02.2019 03:00:00 -5,1 -5,1 3 2 5 3 NW 1002,6 48 0,0
16.02.2019 02:00:00 -4,8 -4,8 4 2 5 3 WNW 1004,0 31 0,0
16.02.2019 01:00:00 -3,4 -3,4 3 2 5 3 WNW 1005,1 32 0,0
16.02.2019 00:00:00 - - - - 5 3 - - - -
15.02.2019 23:00:00 -2,2 -2,2 0 0 5 3 N 1007,3 19 0,0
15.02.2019 22:00:00 -2,0 -2,0 2 1 5 3 N 1008,6 33 0,0
15.02.2019 21:00:00 -0,9 -0,9 3 2 5 3 WNW 1009,8 46 0,0
15.02.2019 20:00:00 -0,6 -0,7 2 1 4 2 WNW 1011,1 50 0,0
15.02.2019 19:00:00 -1,1 -1,7 0 0 5 3 N 1012,1 50 0,0
15.02.2019 18:00:00 -0,8 -1,4 0 0 5 3 N 1012,6 50 0,0
15.02.2019 17:00:00 -0,7 -1,7 0 0 5 3 N 1012,8 50 0,0
15.02.2019 16:00:00 1,2 -0,1 2 1 4 2 WNW 1012,9 50 0,0
15.02.2019 15:00:00 5,0 0,4 5 3 14 8 SSE 1012,9 50 0,0
15.02.2019 14:00:00 5,4 0,8 5 3 12 6 S 1013,0 39 0,0
15.02.2019 13:00:00 4,4 0,5 6 3 10 5 SSE 1013,3 49 0,0
15.02.2019 12:00:00 4,7 1,0 4 2 10 5 SSE 1013,6 45 0,0
15.02.2019 11:00:00 4,9 1,2 5 3 18 10 SW 1013,6 50 0,0
15.02.2019 10:00:00 4,8 1,1 8 4 23 12 WSW 1013,5 50 0,0
15.02.2019 09:00:00 4,6 0,4 11 6 22 12 WSW 1012,9 50 0,0
15.02.2019 08:00:00 4,2 -0,4 6 3 24 13 WSW 1012,3 47 0,0
15.02.2019 07:00:00 4,5 -0,7 13 7 33 18 W 1011,8 40 0,0
15.02.2019 06:00:00 4,8 -0,4 15 8 32 18 W 1011,2 27 0,0
15.02.2019 05:00:00 5,0 -1,0 13 7 40 21 W 1010,9 26 0,0
15.02.2019 04:00:00 5,5 -1,9 11 6 44 24 W 1010,8 25 0,0
15.02.2019 03:00:00 5,5 -1,7 17 9 45 24 W 1010,6 24 0,0
15.02.2019 02:00:00 5,4 -0,9 17 9 44 24 WNW 1010,3 31 0,0
15.02.2019 01:00:00 5,2 0,2 15 8 37 20 W 1010,3 32 0,0
15.02.2019 00:00:00 5,4 -1,5 10 5 30 16 W 1010,3 20 0,0
14.02.2019 23:00:00 5,9 -1,7 12 6 31 17 WNW 1010,0 19 0,0
14.02.2019 22:00:00 6,0 -1,6 13 7 33 18 W 1009,6 18 0,0
14.02.2019 21:00:00 6,3 -1,4 14 8 34 19 W 1009,0 18 0,0
14.02.2019 20:00:00 6,7 -0,5 17 9 59 32 WNW 1008,3 25 0,0
14.02.2019 19:00:00 7,5 0,2 17 9 42 23 WNW 1007,6 48 0,0
14.02.2019 18:00:00 7,7 0,7 16 8 45 25 W 1007,1 50 0,0
14.02.2019 17:00:00 8,5 0,7 18 10 39 21 W 1006,4 50 0,0
14.02.2019 16:00:00 7,8 1,0 9 5 23 12 WSW 1006,9 50 0,0
14.02.2019 15:00:00 7,0 0,4 7 4 29 16 WNW 1007,6 50 0,0
14.02.2019 14:00:00 5,6 0,0 9 5 20 11 NNW 1007,1 48 0,0
14.02.2019 13:00:00 2,2 2,1 0 0 6 3 N 1007,1 22 0,0
14.02.2019 12:00:00 1,6 1,2 0 0 7 4 N 1008,0 24 0,0
14.02.2019 11:00:00 2,1 1,2 0 0 13 7 N 1008,5 26 0,0
14.02.2019 10:00:00 0,8 0,8 0 0 5 3 N 1010,1 14 0,0
14.02.2019 09:00:00 0,3 0,3 0 0 4 2 N 1011,6 10 0,0
14.02.2019 08:00:00 0,1 0,1 0 0 4 2 N 1012,7 10 0,0
14.02.2019 07:00:00 0,4 0,4 3 1 5 3 W 1013,2 9 0,0
14.02.2019 06:00:00 0,4 0,4 0 0 5 3 N 1013,5 7 0,1
14.02.2019 05:00:00 1,4 0,7 3 2 6 4 E 1014,8 7 0,2
14.02.2019 04:00:00 2,0 0,2 5 3 28 15 NNW 1015,5 12 0,0
14.02.2019 03:00:00 -1,6 -1,7 2 1 5 3 WSW 1016,2 36 0,0
14.02.2019 02:00:00 -2,0 -2,1 0 0 6 3 N 1015,8 50 0,0
14.02.2019 01:00:00 -3,0 -3,0 3 2 5 3 NNW 1015,9 50 0,0
14.02.2019 00:00:00 -2,5 -2,5 0 0 5 3 N 1015,4 47 0,0
13.02.2019 23:00:00 1,0 -1,2 2 1 23 12 W 1014,0 50 0,0
13.02.2019 22:00:00 2,6 -0,6 11 6 36 19 NW 1012,5 50 0,0
13.02.2019 21:00:00 3,5 -0,9 21 11 53 29 NW 1010,1 50 0,0
13.02.2019 20:00:00 3,7 -0,7 21 11 49 27 NNW 1008,8 50 0,0
13.02.2019 19:00:00 3,6 -0,4 18 10 45 25 NW 1007,5 50 0,0
13.02.2019 18:00:00 4,0 0,0 21 11 48 26 NW 1006,1 50 0,0
13.02.2019 17:00:00 3,7 1,2 27 15 60 33 NW 1004,7 12 0,3
13.02.2019 16:00:00 3,7 0,9 23 12 51 28 NW 1002,8 16 0,0
13.02.2019 15:00:00 4,4 0,7 21 11 42 23 WNW 1001,9 44 0,0
13.02.2019 14:00:00 4,2 1,1 21 11 44 24 WNW 1002,1 50 0,0
13.02.2019 13:00:00 3,9 1,1 16 9 41 22 WNW 1001,7 39 0,0
13.02.2019 12:00:00 3,3 0,4 16 8 38 21 WNW 1001,7 23 0,0
13.02.2019 11:00:00 2,7 0,1 15 8 31 17 NW 1001,7 27 0,0
13.02.2019 10:00:00 1,3 -0,8 16 9 35 19 NW 1001,2 50 0,0
13.02.2019 09:00:00 0,2 -1,2 14 8 32 18 NW 1000,6 50 0,0
13.02.2019 08:00:00 -4,9 -4,9 4 2 15 8 WNW 1000,3 50 0,0
13.02.2019 07:00:00 -7,1 -7,9 2 1 7 4 SSE 999,8 50 0,0
13.02.2019 06:00:00 -6,2 -6,9 0 0 3 1 N 1000,1 50 0,0
13.02.2019 05:00:00 -6,1 -6,5 2 1 5 3 W 1000,0 50 0,0
13.02.2019 04:00:00 -5,6 -5,7 0 0 4 2 N 1000,8 8 0,0
13.02.2019 03:00:00 -7,7 -8,4 0 0 5 3 N 1001,5 22 0,0
13.02.2019 02:00:00 -8,3 -9,1 2 1 4 2 WNW 1001,9 50 0,0
13.02.2019 01:00:00 -8,7 -9,5 0 0 3 2 N 1004,0 50 0,0
13.02.2019 00:00:00 -10,0 -11,1 2 1 4 2 WNW 1005,5 50 0,0
12.02.2019 23:00:00 -11,3 -12,3 0 0 4 2 N 1006,6 50 0,0
12.02.2019 22:00:00 -12,0 -13,2 0 0 5 3 N 1007,2 50 0,0
12.02.2019 21:00:00 -12,3 -13,2 4 2 4 2 WNW 1008,5 50 0,0
12.02.2019 20:00:00 -11,6 -12,5 0 0 3 2 N 1009,4 50 0,0
12.02.2019 19:00:00 -10,5 -11,1 3 2 5 3 WNW 1010,1 50 0,0
12.02.2019 18:00:00 -8,7 -9,0 0 0 5 3 N 1010,6 19 0,0
12.02.2019 17:00:00 -4,6 -5,6 0 0 13 7 N 1010,4 50 0,0
12.02.2019 16:00:00 -3,4 -5,6 5 3 15 8 WNW 1010,7 44 0,0
12.02.2019 15:00:00 -1,8 -5,3 6 3 27 15 WNW 1010,5 41 0,0
12.02.2019 14:00:00 -1,8 -5,5 16 9 32 17 WNW 1010,3 34 0,0
12.02.2019 13:00:00 -2,0 -6,1 14 8 29 16 NW 1010,1 35 0,0
12.02.2019 12:00:00 -2,3 -6,1 15 8 34 18 WNW 1009,9 38 0,0
12.02.2019 11:00:00 -2,7 -6,7 18 10 34 18 WNW 1009,7 44 0,0
12.02.2019 10:00:00 -3,1 -6,7 13 7 33 18 NW 1009,6 41 0,0
12.02.2019 09:00:00 -3,3 -6,4 17 9 34 19 NW 1008,9 44 0,0
12.02.2019 08:00:00 -3,5 -6,0 19 10 36 19 NW 1008,1 50 0,0
12.02.2019 07:00:00 -3,7 -5,7 16 9 31 17 WNW 1007,3 50 0,0
12.02.2019 06:00:00 -3,7 -5,9 18 10 35 19 WNW 1006,9 50 0,0
12.02.2019 05:00:00 -4,3 -6,3 12 6 37 20 NW 1006,7 50 0,0
12.02.2019 04:00:00 -4,1 -6,4 17 9 37 20 WNW 1006,3 50 0,0
12.02.2019 03:00:00 -4,3 -6,8 16 9 35 19 WNW 1006,1 50 0,0
12.02.2019 02:00:00 -4,5 -6,9 22 12 40 21 WNW 1005,7 50 0,0
12.02.2019 01:00:00 -3,8 -6,7 22 12 39 21 WNW 1005,6 50 0,0

tt = Température de l'air
td = dewpoint
ff = Vitesse du vent
fx = gusts
dd = Direction du vent
ppp = reduced air pressure
vv = visibility
rr = Quantités de précipitations

stations d'obs. à proximité